This is the latest recevied weather packets stored in our database for station/object KD9NSC. If no packets are shown the sender has not sent any weather packets the latest 1 day(s).
| Time | Temp. | Humidity | Pressure | Rain* | Wind** | Luminosity | Snow |
|---|---|---|---|---|---|---|---|
| 1777996170 | 11.67° C | 79% | 1011.1 hPa | 0 mm | 0 m/s | 376 W/m² | - |
| 1777995866 | 12.22° C | 80% | 1010.8 hPa | 0 mm | 0 m/s | 505 W/m² | - |
| 1777995562 | 12.22° C | 77% | 1010.7 hPa | 0 mm | 0 m/s | 392 W/m² | - |
| 1777995259 | 12.78° C | 76% | 1010.9 hPa | 0 mm | 0 m/s | 434 W/m² | - |
| 1777994950 | 12.22° C | 77% | 1011.2 hPa | 0 mm | 0 m/s | 485 W/m² | - |
| 1777994647 | 11.67° C | 80% | 1011.1 hPa | 0 mm | 0 m/s | 382 W/m² | - |
| 1777994342 | 11.67° C | 86% | 1011.1 hPa | 0 mm | 0 m/s | 220 W/m² | - |
| 1777994039 | 10° C | 85% | 1011.1 hPa | 0 mm | 0 m/s | 425 W/m² | - |
| 1777993735 | 9.44° C | 90% | 1011.1 hPa | 0 mm | 0 m/s | 305 W/m² | - |
| 1777993432 | 8.33° C | 91% | 1011.2 hPa | 0 mm | 0 m/s | 169 W/m² | - |
| 1777993127 | 8.89° C | 93% | 1011 hPa | 0 mm | 0 m/s | 72 W/m² | - |
| 1777992825 | 8.33° C | 94% | 1011.1 hPa | 0 mm | 0 m/s | 53 W/m² | - |
| 1777992522 | 8.89° C | 95% | 1011.2 hPa | 0 mm | 0 m/s | 80 W/m² | - |
| 1777992221 | 8.33° C | 95% | 1011.3 hPa | 0 mm | 0 m/s | 99 W/m² | - |
| 1777991918 | 7.78° C | 95% | 1011.7 hPa | 0 mm | 0 m/s | 63 W/m² | - |
| 1777991615 | 7.78° C | 95% | 1011.7 hPa | 0 mm | 0 m/s | 43 W/m² | - |
| 1777991312 | 7.22° C | 95% | 1011.3 hPa | 0 mm | 0 m/s | 35 W/m² | - |
| 1777991010 | 7.22° C | 94% | 1011.7 hPa | 0 mm | 0 m/s | 30 W/m² | - |
| 1777990707 | 7.22° C | 94% | 1011.9 hPa | 1.27 mm | 0 m/s | 27 W/m² | - |
| 1777990404 | 6.67° C | 94% | 1011.7 hPa | 1.27 mm | 0 m/s | 18 W/m² | - |
| 1777990100 | 7.22° C | 94% | 1011.9 hPa | 0 mm | 0 m/s | 19 W/m² | - |
| 1777989797 | 7.22° C | 93% | 1011.9 hPa | 1.78 mm | 0 m/s | 14 W/m² | - |
| 1777989494 | 6.67° C | 93% | 1012.2 hPa | 1.78 mm | 0 m/s | 19 W/m² | - |
| 1777989190 | 6.67° C | 92% | 1012.3 hPa | 0 mm | 0 m/s | 14 W/m² | - |
| 1777988887 | 6.67° C | 92% | 1012.2 hPa | 1.27 mm | 0 m/s | 12 W/m² | - |
* Rain latest hour (hover to see other rain measurements)
** Current wind speed in m/s (hover to see current wind gust speed)